Weather History for Taba International, Egypt

Change the Weather History Date:

Friday, November 23, 2012

  Actual Average (LLOV) Record (LLOV)
Temperature  
Mean Temperature 58 °F -  
Max Temperature 66 °F 68 °F 77 °F (1998)
Min Temperature 50 °F 48 °F 41 °F (2011)
Degree Days  
Heating Degree Days 7    
Growing Degree Days 8 (Base 50)    
Moisture  
Dew Point 50 °F    
Average Humidity 77    
Maximum Humidity 100    
Minimum Humidity 46    
Precipitation  
Precipitation 0.00 in - - ()
Sea Level Pressure  
Sea Level Pressure 30.02 in    
Wind  
Wind Speed 3 mph ()    
Max Wind Speed 15 mph    
Max Gust Speed -    
Visibility 6.0 miles    
Events      
Averages and records for this station are not official NWS values.
T = Trace of Precipitation, MM = Missing Value Source: Averaged Metar Reports

Daily Weather History Graph

Daily Weather History Graph

Search for Another Location

Airport:

Trip Planner

Search our weather history database for the weather conditions in past years. The results will help you decide how hot, cold, wet, or windy it might be!

Date:

Astronomy

Nov. 23, 2012 Rise Set
Actual Time 6:11 AM EET 4:42 PM EET
Civil Twilight 5:46 AM EET 5:08 PM EET
Nautical Twilight 5:17 AM EET 5:37 PM EET
Astronomical Twilight 4:48 AM EET 6:05 PM EET
Moon 1:30 PM EET (11/23) 1:29 AM EET (11/23)
Length of Visible Light 11h 21m
Length of Day
10h 30m
Waxing Gibbous, 77% of the Moon is Illuminated
Nov 23
Waxing Gibbous
Nov 28
Full
Dec 6
Last Quarter
Dec 13
New
Dec 20
First Quarter

Hourly Weather History & Observations

Time (EET) Temp. Dew Point Humidity Pressure Visibility Wind Dir Wind Speed Gust Speed Precip Events Conditions
12:00 AM 55.4 °F 51.8 °F 88% 29.98 in - Calm Calm - N/A   Clear
1:00 AM 55.4 °F 53.6 °F 94% 29.98 in 6.2 mi Calm Calm - N/A   Partly Cloudy
2:00 AM 55.4 °F 55.4 °F 100% 29.98 in 3.7 mi Calm Calm - N/A   Partly Cloudy
3:00 AM 55.4 °F 55.4 °F 100% 29.98 in - Calm Calm - N/A   Clear
4:00 AM 55.4 °F 53.6 °F 94% 29.98 in - Calm Calm - N/A   Clear
5:00 AM 51.8 °F 51.8 °F 100% 29.98 in - Calm Calm - N/A   Clear
6:00 AM 50.0 °F 50.0 °F 100% 29.98 in - Calm Calm - N/A   Clear
7:00 AM 51.8 °F 50.0 °F 94% 30.01 in - Calm Calm - N/A   Clear
8:00 AM 55.4 °F 51.8 °F 88% 30.01 in - Calm Calm - N/A   Clear
9:00 AM 59.0 °F 50.0 °F 72% 30.04 in - West 8.1 mph - N/A   Clear
10:00 AM 60.8 °F 48.2 °F 63% 30.04 in 6.2 mi West 9.2 mph - N/A   Partly Cloudy
11:00 AM 64.4 °F 46.4 °F 52% 30.01 in 6.2 mi West 10.4 mph - N/A   Partly Cloudy
12:00 PM 64.4 °F 46.4 °F 52% 30.01 in 6.2 mi WNW 5.8 mph - N/A   Scattered Clouds
1:00 PM 66.2 °F 44.6 °F 46% 30.01 in 6.2 mi West 11.5 mph - N/A   Scattered Clouds
2:00 PM 66.2 °F 44.6 °F 46% 30.01 in 6.2 mi West 15.0 mph - N/A   Scattered Clouds
3:00 PM 66.2 °F 44.6 °F 46% 30.01 in 6.2 mi West 10.4 mph - N/A   Scattered Clouds
4:00 PM 64.4 °F 46.4 °F 52% 30.01 in 6.2 mi West 10.4 mph - N/A   Scattered Clouds
5:00 PM 64.4 °F 46.4 °F 52% 30.04 in 6.2 mi WNW 11.5 mph - N/A   Scattered Clouds
6:00 PM 62.6 °F 46.4 °F 55% 30.04 in 6.2 mi WNW 6.9 mph - N/A   Scattered Clouds
7:00 PM 59.0 °F 53.6 °F 82% 30.06 in 6.2 mi WNW 9.2 mph - N/A   Scattered Clouds
8:00 PM 57.2 °F 53.6 °F 88% 30.06 in 6.2 mi WNW 5.8 mph - N/A   Scattered Clouds
9:00 PM 55.4 °F 51.8 °F 88% 30.06 in 6.2 mi Calm Calm - N/A   Scattered Clouds
10:00 PM 55.4 °F 53.6 °F 94% 30.09 in 6.2 mi Calm Calm - N/A   Scattered Clouds
11:00 PM 55.4 °F 53.6 °F 94% 30.09 in 6.2 mi Calm Calm - N/A   Partly Cloudy